CW7500 Weather Reports


Display with metric or nautical units.
time (UTC)temp
F
wind
direction
speed
MPH
gust
MPH
rain 1hr
in
rain 24hr
in
rain mn
in
humidity
%
barometer
mb
20260510163538 66 213 2.0 8.0 0.02 0.10 0.04 68 1011.1
20260510162538 66 197 2.0 6.0 0.02 0.10 0.04 72 1011.2
20260510162038 66 88 2.0 6.0 0.02 0.10 0.04 67 1011.2
20260510161038 66 264 2.0 5.0 0.00 0.08 0.02 70 1011.2
20260510160537 66 245 1.0 6.0 0.00 0.08 0.02 72 1011.2
20260510160038 66 249 2.0 5.0 0.00 0.08 0.02 71 1011.3
20260510155538 65 220 2.0 5.0 0.00 0.08 0.02 71 1011.3
20260510155038 65 111 2.0 5.0 0.00 0.08 0.02 69 1011.2
20260510154037 63 253 2.0 5.0 0.00 0.08 0.02 77 1011.1
20260510153537 62 210 1.0 5.0 0.00 0.08 0.02 79 1011.1
20260510153037 62 115 1.0 5.0 0.00 0.08 0.02 80 1011.1
20260510152037 62 212 2.0 7.0 0.00 0.08 0.02 77 1011.3
20260510150537 62 237 1.0 5.0 0.00 0.08 0.02 79 1011.2
20260510150037 62 229 1.0 3.0 0.00 0.08 0.02 83 1011.2
20260510145537 61 199 1.0 5.0 0.00 0.08 0.02 82 1011.2
20260510145037 61 54 1.0 5.0 0.00 0.08 0.02 84 1011.2
20260510144537 60 225 1.0 3.0 0.00 0.08 0.02 85 1011.4
20260510144038 60 113 2.0 3.0 0.00 0.08 0.02 81 1011.4
20260510143537 60 262 1.0 3.0 0.00 0.08 0.02 83 1011.4
20260510143038 60 168 1.0 2.0 0.00 0.08 0.02 82 1011.5
20260510142537 60 166 1.0 2.0 0.00 0.08 0.02 88 1011.5
20260510142037 59 231 1.0 2.0 0.00 0.08 0.02 87 1011.6
20260510141537 58 226 1.0 1.0 0.00 0.08 0.02 89 1011.6
20260510141037 58 86 1.0 3.0 0.00 0.08 0.02 87 1011.5
20260510140537 58 263 1.0 2.0 0.00 0.08 0.02 87 1011.6
20260510140037 57 120 0.0 2.0 0.00 0.08 0.02 92 1011.5
20260510135537 57 192 1.0 2.0 0.00 0.08 0.02 92 1011.6
20260510134037 56 194 1.0 2.0 0.00 0.08 0.02 90 1011.5
20260510133537 56 198 1.0 3.0 0.00 0.08 0.02 90 1011.5
20260510133037 56 69 1.0 3.0 0.00 0.08 0.02 90 1011.4
20260510132537 56 5 1.0 2.0 0.00 0.08 0.02 92 1011.5
20260510132038 56 242 1.0 5.0 0.00 0.08 0.02 92 1011.5
20260510131537 56 163 1.0 3.0 0.00 0.08 0.02 90 1011.4
20260510131037 56 117 2.0 3.0 0.00 0.08 0.02 89 1011.2
20260510130537 56 91 1.0 2.0 0.00 0.08 0.02 93 1011.4
20260510130038 55 162 1.0 3.0 0.00 0.08 0.02 93 1011.4
20260510124537 54 288 1.0 2.0 0.00 0.08 0.02 97 1011.2
20260510124037 53 154 1.0 3.0 0.00 0.08 0.02 98 1011.2
20260510123537 53 190 1.0 3.0 0.00 0.08 0.02 100 1011.4
20260510123037 52 108 1.0 2.0 0.00 0.08 0.02 100 1011.5
20260510122537 52 150 1.0 2.0 0.00 0.08 0.02 100 1011.5
20260510122037 52 329 2.0 3.0 0.00 0.08 0.02 100 1011.7
20260510121536 52 210 0.0 2.0 0.00 0.08 0.02 100 1011.5
20260510121037 52 210 0.0 2.0 0.00 0.08 0.02 100 1011.5
20260510120537 52 305 1.0 3.0 0.00 0.08 0.02 100 1011.5
20260510115537 52 109 1.0 2.0 0.00 0.08 0.02 100 1011.1
20260510115038 51 120 1.0 3.0 0.00 0.08 0.02 100 1011.1
20260510114037 51 197 1.0 5.0 0.00 0.08 0.02 100 1011.2
20260510113537 51 210 1.0 2.0 0.00 0.08 0.02 100 1011.1
20260510113037 51 117 1.0 3.0 0.00 0.10 0.02 100 1010.9
20260510112537 51 147 1.0 5.0 0.00 0.10 0.02 100 1010.6
20260510112037 51 146 1.0 2.0 0.00 0.10 0.02 100 1010.8
20260510111537 51 180 1.0 3.0 0.00 0.10 0.02 100 1010.9
20260510110537 50 196 1.0 3.0 0.00 0.10 0.02 100 1010.8
20260510110037 50 138 2.0 5.0 0.00 0.10 0.02 100 1010.9
20260510105536 50 138 2.0 5.0 0.00 0.10 0.02 100 1010.8
20260510105037 50 209 1.0 3.0 0.00 0.10 0.02 100 1010.8
20260510104537 50 156 2.0 3.0 0.00 0.10 0.02 100 1010.8
20260510104037 50 128 1.0 2.0 0.00 0.10 0.02 100 1010.8
20260510103036 50 207 1.0 5.0 0.00 0.10 0.02 100 1011.2
20260510102536 50 231 1.0 5.0 0.02 0.10 0.02 100 1011.0
20260510102036 50 189 1.0 2.0 0.02 0.10 0.02 100 1010.9
20260510101537 50 171 1.0 1.0 0.02 0.10 0.02 100 1011.0
20260510101036 50 181 1.0 2.0 0.02 0.10 0.02 100 1011.1
20260510100537 50 164 1.0 2.0 0.02 0.10 0.02 100 1011.0
20260510100037 50 148 1.0 2.0 0.02 0.10 0.02 100 1010.8
20260510095536 50 111 1.0 2.0 0.02 0.10 0.02 100 1011.0
20260510095037 50 118 0.0 1.0 0.02 0.10 0.02 100 1011.1
20260510094537 50 116 1.0 2.0 0.02 0.10 0.02 100 1011.1
20260510094036 50 174 0.0 1.0 0.02 0.10 0.02 100 1011.1
20260510093537 50 189 0.0 3.0 0.02 0.10 0.02 100 1011.0
20260510093036 50 88 0.0 1.0 0.02 0.10 0.02 100 1010.8
20260510092536 50 117 1.0 2.0 0.00 0.08 0.00 100 1010.8
20260510092037 50 209 1.0 2.0 0.00 0.08 0.00 100 1010.7
20260510091536 50 219 1.0 5.0 0.00 0.08 0.00 100 1010.6
20260510091037 50 215 1.0 2.0 0.00 0.08 0.00 100 1010.6
20260510090536 50 203 0.0 1.0 0.00 0.08 0.00 100 1010.4
20260510090037 50 206 1.0 2.0 0.00 0.08 0.00 100 1010.3
20260510085037 50 204 1.0 2.0 0.00 0.08 0.00 100 1010.2
20260510084536 50 195 1.0 2.0 0.00 0.08 0.00 100 1010.2
20260510083536 50 163 1.0 1.0 0.00 0.08 0.00 100 1010.1
20260510083036 50 159 1.0 2.0 0.00 0.08 0.00 100 1010.1
20260510082536 50 145 0.0 1.0 0.00 0.08 0.00 100 1010.1
20260510082036 50 145 1.0 2.0 0.00 0.08 0.00 100 1010.2
20260510081537 50 58 0.0 1.0 0.00 0.08 0.00 100 1010.2
20260510081037 50 192 0.0 1.0 0.00 0.08 0.00 100 1010.2
20260510080536 50 135 2.0 3.0 0.00 0.08 0.00 100 1010.2
20260510080037 50 222 0.0 1.0 0.00 0.08 0.00 100 1010.4
20260510075536 50 198 1.0 3.0 0.00 0.08 0.00 100 1010.4
20260510075036 50 216 0.0 1.0 0.00 0.08 0.00 100 1010.3
20260510073536 50 89 0.0 2.0 0.00 0.08 0.00 100 1010.2
20260510073036 50 219 0.0 1.0 0.00 0.08 0.00 100 1010.2
20260510072537 50 194 0.0 2.0 0.00 0.08 0.00 100 1010.2
20260510072036 50 208 0.0 1.0 0.00 0.08 0.00 100 1010.1
20260510071536 50 181 1.0 2.0 0.00 0.08 0.00 100 1010.2
20260510071036 50 184 0.0 1.0 0.00 0.08 0.00 100 1009.9
20260510070537 50 246 0.0 1.0 0.00 0.08 0.00 100 1009.9
20260510070036 50 228 0.0 0.0 0.00 0.08 0.00 100 1009.7
20260510065536 50 94 0.0 1.0 0.00 0.08 0.00 100 1009.7
20260510065036 50 170 0.0 2.0 0.00 0.08 0.00 100 1009.5
20260510064536 50 160 0.0 1.0 0.00 0.08 0.00 100 1009.7
20260510064036 50 171 0.0 1.0 0.00 0.08 0.00 100 1009.7
20260510063036 50 142 0.0 2.0 0.00 0.08 0.00 100 1009.9
20260510062036 50 99 0.0 1.0 0.00 0.08 0.00 100 1009.9
20260510061036 50 219 0.0 1.0 0.00 0.08 0.00 100 1010.2
20260510060536 50 171 1.0 2.0 0.00 0.08 0.00 100 1010.2
20260510060036 50 206 0.0 1.0 0.00 0.08 0.00 100 1010.2
20260510055536 50 202 0.0 1.0 0.00 0.08 0.00 100 1010.2
20260510055036 50 195 0.0 1.0 0.00 0.08 0.00 100 1010.2
20260510054536 50 237 0.0 1.0 0.00 0.08 0.00 100 1010.3
20260510054036 50 254 0.0 1.0 0.00 0.08 0.00 100 1009.9
20260510053536 50 83 0.0 0.0 0.00 0.08 0.00 100 1009.7
20260510053036 50 53 0.0 1.0 0.00 0.08 0.00 100 1009.7
20260510052536 50 319 0.0 0.0 0.00 0.08 0.00 100 1010.0
20260510052036 50 80 0.0 0.0 0.00 0.08 0.00 100 1010.0
20260510051536 50 52 0.0 0.0 0.00 0.08 0.00 100 1010.0
20260510051036 50 246 0.0 1.0 0.00 0.08 0.00 100 1010.2
20260510050536 50 226 0.0 1.0 0.00 0.08 0.00 100 1010.1
20260510050036 50 193 0.0 0.0 0.00 0.08 0.00 100 1010.1
20260510045535 50 155 0.0 0.0 0.00 0.08 0.00 100 1010.2
20260510045036 50 227 0.0 0.0 0.00 0.08 0.00 100 1010.1
20260510044536 50 198 0.0 1.0 0.00 0.08 0.00 100 1010.2
20260510044036 50 172 0.0 1.0 0.00 0.08 0.00 100 1010.2
20260510043536 50 143 0.0 1.0 0.00 0.08 0.00 100 1010.2
20260510042536 50 189 0.0 2.0 0.00 0.08 0.00 100 1010.2
20260510042036 50 175 1.0 2.0 0.00 0.08 0.00 100 1010.2
20260510041536 50 197 1.0 2.0 0.00 0.08 0.00 100 1010.2
20260510041036 50 210 1.0 3.0 0.00 0.08 0.00 100 1010.2
20260510040535 50 233 1.0 2.0 0.00 0.08 0.00 100 1010.2
20260510040036 50 132 1.0 2.0 0.00 0.08 0.00 100 1010.1
20260510035536 50 155 1.0 1.0 0.00 0.08 0.08 100 1009.9
20260510035035 50 192 1.0 2.0 0.00 0.08 0.08 100 1010.0
20260510034536 50 175 1.0 2.0 0.00 0.08 0.08 100 1009.9
20260510034036 50 213 1.0 3.0 0.00 0.08 0.08 100 1010.1
20260510033536 50 184 1.0 5.0 0.00 0.08 0.08 100 1010.0
20260510033036 50 124 2.0 5.0 0.00 0.08 0.08 100 1009.9
20260510032535 50 157 2.0 5.0 0.00 0.08 0.08 100 1010.2
20260510032036 50 184 1.0 5.0 0.00 0.08 0.08 100 1010.2
20260510031535 50 173 1.0 2.0 0.00 0.08 0.08 100 1010.2
20260510031036 50 147 2.0 6.0 0.00 0.08 0.08 100 1010.2
20260510030536 50 163 2.0 5.0 0.00 0.08 0.08 100 1010.2
20260510030036 50 175 1.0 5.0 0.00 0.08 0.08 100 1010.5
20260510025036 50 98 2.0 5.0 0.00 0.08 0.08 100 1010.4
20260510024535 50 231 1.0 5.0 0.00 0.08 0.08 100 1010.3
20260510024035 50 160 1.0 2.0 0.00 0.08 0.08 100 1010.3
20260510023536 50 202 1.0 2.0 0.00 0.08 0.08 100 1010.3
20260510023035 50 146 1.0 3.0 0.00 0.08 0.08 100 1010.5
20260510022036 50 160 2.0 3.0 0.00 0.08 0.08 100 1010.8
20260510021535 50 180 1.0 2.0 0.00 0.08 0.08 100 1010.7
20260510021035 50 192 1.0 2.0 0.00 0.08 0.08 100 1010.7
20260510020535 50 150 1.0 3.0 0.00 0.08 0.08 100 1010.8
20260510020035 51 145 1.0 3.0 0.00 0.08 0.08 100 1010.8
20260510015535 51 148 2.0 6.0 0.00 0.08 0.08 100 1011.0
20260510015035 51 170 1.0 6.0 0.00 0.08 0.08 100 1011.0
20260510014535 51 193 1.0 2.0 0.00 0.08 0.08 100 1011.0
20260510014036 51 121 1.0 2.0 0.00 0.08 0.08 100 1011.1
20260510013035 51 199 2.0 5.0 0.00 0.08 0.08 100 1011.0
20260510012535 51 135 1.0 5.0 0.00 0.08 0.08 100 1011.1
20260510012035 51 167 2.0 3.0 0.00 0.08 0.08 100 1011.1
20260510011536 51 175 2.0 3.0 0.00 0.08 0.08 100 1011.2
20260510011035 51 171 2.0 7.0 0.00 0.08 0.08 100 1011.0
20260510010535 51 180 1.0 5.0 0.00 0.08 0.08 100 1011.1
20260510010035 52 225 2.0 5.0 0.00 0.08 0.08 100 1011.0
20260510005536 52 175 2.0 5.0 0.00 0.08 0.08 100 1011.0
20260510004536 52 211 1.0 2.0 0.00 0.08 0.08 100 1011.0
20260510003536 52 180 2.0 6.0 0.00 0.08 0.08 100 1011.0
20260510003035 52 122 2.0 5.0 0.00 0.08 0.08 100 1011.0
20260510002535 52 217 2.0 3.0 0.00 0.08 0.08 100 1010.9
20260510002036 52 155 2.0 7.0 0.00 0.08 0.08 100 1010.7
20260510001535 52 148 2.0 6.0 0.00 0.08 0.08 100 1010.9
20260510001035 52 188 3.0 6.0 0.00 0.08 0.08 100 1010.9
20260510000036 52 20 2.0 3.0 0.00 0.08 0.08 100 1010.9
20260509235035 52 193 1.0 2.0 0.00 0.08 0.08 100 1011.2
20260509234535 52 181 0.0 2.0 0.00 0.08 0.08 100 1011.1
20260509234035 51 157 0.0 2.0 0.00 0.08 0.08 100 1011.2
20260509233035 51 232 0.0 1.0 0.00 0.08 0.08 100 1011.3
20260509232535 51 186 2.0 7.0 0.00 0.08 0.08 100 1011.4
20260509232035 51 226 1.0 3.0 0.00 0.08 0.08 100 1011.4
20260509231535 51 196 0.0 0.0 0.00 0.08 0.08 100 1011.3
20260509231034 51 181 0.0 0.0 0.00 0.08 0.08 100 1011.2
20260509230535 51 175 0.0 0.0 0.00 0.08 0.08 100 1011.2
20260509230035 50 175 0.0 0.0 0.00 0.08 0.08 100 1011.1
20260509225535 50 180 0.0 0.0 0.00 0.08 0.08 100 1011.1
20260509225034 51 170 0.0 1.0 0.00 0.08 0.08 100 1011.1
20260509224535 51 246 0.0 3.0 0.00 0.08 0.08 100 1011.0
20260509224035 51 44 1.0 3.0 0.00 0.08 0.08 100 1010.7
20260509223535 51 340 0.0 3.0 0.00 0.08 0.08 100 1010.7
20260509223035 51 6 2.0 7.0 0.00 0.08 0.08 100 1010.6
20260509222535 51 305 3.0 6.0 0.00 0.08 0.08 100 1010.8
20260509222036 52 96 3.0 6.0 0.00 0.08 0.08 100 1010.3
20260509221535 52 259 1.0 3.0 0.00 0.08 0.08 100 1010.6
20260509221035 52 55 1.0 3.0 0.00 0.08 0.08 100 1010.5
20260509220035 52 148 0.0 1.0 0.02 0.08 0.08 100 1010.4
20260509215535 52 209 0.0 1.0 0.02 0.08 0.08 100 1010.4
20260509215034 52 78 0.0 1.0 0.02 0.08 0.08 100 1010.6
20260509214535 52 277 0.0 1.0 0.02 0.08 0.08 100 1010.6
20260509214035 52 221 1.0 2.0 0.02 0.08 0.08 100 1010.6
20260509213535 53 347 2.0 5.0 0.02 0.08 0.08 100 1010.6
20260509213035 53 154 2.0 3.0 0.02 0.08 0.08 100 1010.5
20260509212535 53 224 1.0 2.0 0.02 0.08 0.08 100 1010.6
20260509212034 53 227 0.0 0.0 0.02 0.08 0.08 100 1010.5
20260509211535 52 171 0.0 0.0 0.02 0.08 0.08 100 1010.3
20260509211034 52 11 0.0 1.0 0.02 0.08 0.08 100 1010.2
20260509210535 52 18 1.0 2.0 0.00 0.06 0.06 100 1010.2
20260509205535 52 272 1.0 3.0 0.00 0.06 0.06 100 1010.4
20260509205035 52 259 2.0 6.0 0.00 0.06 0.06 100 1010.6
20260509204535 52 122 1.0 3.0 0.00 0.06 0.06 100 1010.4
20260509203535 52 28 1.0 5.0 0.00 0.06 0.06 100 1010.5
20260509203034 52 358 1.0 5.0 0.00 0.06 0.06 100 1010.3
20260509202534 52 21 2.0 5.0 0.00 0.06 0.06 100 1010.2
20260509202034 52 60 2.0 6.0 0.00 0.06 0.06 100 1010.1
20260509201535 53 346 2.0 5.0 0.00 0.06 0.06 100 1010.2
20260509201034 53 53 1.0 3.0 0.02 0.06 0.06 100 1010.3
20260509200535 53 358 1.0 3.0 0.02 0.06 0.06 100 1010.2
20260509200034 53 55 0.0 1.0 0.02 0.06 0.06 100 1010.2
20260509195535 53 300 1.0 2.0 0.02 0.06 0.06 99 1010.4
20260509195035 53 47 2.0 2.0 0.02 0.06 0.06 98 1010.3
20260509194534 53 21 0.0 2.0 0.02 0.06 0.06 97 1010.3
20260509194035 53 339 2.0 3.0 0.02 0.06 0.06 96 1010.2
20260509193534 54 23 1.0 2.0 0.02 0.06 0.06 94 1010.2
20260509193035 54 216 1.0 5.0 0.02 0.06 0.06 93 1010.2
20260509192534 55 2 1.0 3.0 0.02 0.06 0.06 90 1010.2
20260509192035 55 356 1.0 3.0 0.02 0.06 0.06 91 1010.2
20260509191534 56 47 0.0 1.0 0.04 0.06 0.06 91 1010.3
20260509191035 56 350 1.0 3.0 0.02 0.04 0.04 90 1010.3
20260509190534 56 85 1.0 2.0 0.02 0.04 0.04 87 1010.4
20260509190035 56 33 0.0 2.0 0.02 0.04 0.04 91 1010.4
20260509185535 56 93 2.0 3.0 0.02 0.04 0.04 89 1010.5
20260509185034 55 58 1.0 3.0 0.02 0.04 0.04 89 1010.6
20260509184534 55 57 1.0 2.0 0.02 0.04 0.04 90 1010.6
20260509184035 54 45 1.0 1.0 0.02 0.04 0.04 92 1010.7
20260509183534 54 76 0.0 3.0 0.02 0.04 0.04 92 1010.7
20260509183034 55 58 1.0 3.0 0.02 0.04 0.04 90 1010.7
20260509182034 55 12 2.0 6.0 0.02 0.04 0.04 90 1010.7
20260509181035 56 214 1.0 1.0 0.00 0.02 0.02 90 1010.7
20260509180534 56 45 0.0 2.0 0.00 0.02 0.02 90 1010.8
20260509175534 56 211 1.0 3.0 0.00 0.02 0.02 87 1011.3
20260509175034 56 197 0.0 2.0 0.00 0.02 0.02 84 1011.6
20260509174534 56 240 1.0 2.0 0.00 0.02 0.02 85 1011.6
20260509174034 57 1 0.0 2.0 0.00 0.02 0.02 81 1011.6
20260509173534 57 21 2.0 3.0 0.00 0.02 0.02 80 1011.2
20260509173034 57 13 2.0 5.0 0.00 0.02 0.02 82 1011.2
20260509172534 57 96 1.0 3.0 0.00 0.02 0.02 82 1011.2
20260509172034 57 78 2.0 5.0 0.00 0.02 0.02 79 1011.1
20260509171534 57 42 1.0 3.0 0.00 0.02 0.02 78 1011.2
20260509171034 56 45 1.0 5.0 0.00 0.02 0.02 84 1011.3
20260509170537 56 52 2.0 5.0 0.00 0.02 0.02 81 1011.4
20260509170034 55 3 1.0 2.0 0.00 0.02 0.02 83 1011.4
20260509165534 55 72 2.0 3.0 0.00 0.02 0.02 81 1011.5